Washington, MO

4:56 AM CDT on June 25, 2017 (GMT -0500)
Washington

Weather History for KFYG - January, 2014

Change the Weather History Date:

Saturday, January 25, 2014

  Actual Average (KSUS) Record (KSUS)
Temperature  
Mean Temperature 34 °F -  
Max Temperature 44 °F 38 °F 55 °F (2017)
Min Temperature 23 °F 19 °F 21 °F (2014)
Degree Days  
Heating Degree Days 32    
Moisture  
Dew Point 14 °F    
Average Humidity 45    
Maximum Humidity 87    
Minimum Humidity 13    
Precipitation  
Precipitation 0.01 in - - ()
Sea Level Pressure  
Sea Level Pressure 29.85 in    
Wind  
Wind Speed 10 mph (NW)    
Max Wind Speed 26 mph    
Max Gust Speed 37 mph    
Visibility 10 miles    
Events Rain    
Averages and records for this station are not official NWS values.
T = Trace of Precipitation, MM = Missing Value Source: NWS Daily Summary

Daily Weather History Graph

Daily Weather History Graph

Search for Another Location

Airport or City:

Trip Planner

Search our weather history database for the weather conditions in past years. The results will help you decide how hot, cold, wet, or windy it might be!

Date:

Astronomy

Jan. 25, 2014 Rise Set
Actual Time 7:15 AM CST 5:18 PM CST
Civil Twilight 6:46 AM CST 5:46 PM CST
Nautical Twilight 6:14 AM CST 6:18 PM CST
Astronomical Twilight 5:43 AM CST 6:50 PM CST
Moon 1:47 AM CST 12:18 PM CST
Length of Visible Light 10h 59m
Length of Day
10h 03m
Waning Crescent, 34% of the Moon is Illuminated
Jan 25
Waning Crescent
Jan 30
New
Feb 6
First Quarter
Feb 14
Full
Feb 22
Last Quarter

Hourly Weather History & Observations

Time (CST) Temp. Windchill Dew Point Humidity Pressure Visibility Wind Dir Wind Speed Gust Speed Precip Events Conditions
12:15 AM 37.4 °F 32.1 °F 8.6 °F 30% 29.75 in 10.0 mi WSW 6.9 mph 17.3 mph N/A   Overcast
12:35 AM 39.2 °F 33.6 °F 10.4 °F 31% 29.74 in 10.0 mi West 8.1 mph - N/A   Overcast
12:55 AM 39.2 °F 35.0 °F 10.4 °F 31% 29.73 in 9.0 mi West 5.8 mph - N/A Rain Light Rain
1:55 AM 39.2 °F 34.2 °F 14.0 °F 36% 29.71 in 10.0 mi West 6.9 mph - N/A   Overcast
2:15 AM 39.2 °F 33.0 °F 14.0 °F 36% 29.70 in 10.0 mi West 9.2 mph - N/A   Overcast
2:35 AM 39.2 °F 33.6 °F 14.0 °F 36% 29.69 in 10.0 mi West 8.1 mph - N/A   Overcast
2:55 AM 39.2 °F 34.2 °F 14.0 °F 36% 29.69 in 10.0 mi West 6.9 mph - N/A   Overcast
3:15 AM 41.0 °F 34.3 °F 14.0 °F 33% 29.69 in 10.0 mi West 11.5 mph 17.3 mph N/A   Overcast
3:35 AM 41.0 °F 35.8 °F 14.0 °F 33% 29.69 in 10.0 mi West 8.1 mph 16.1 mph N/A   Overcast
3:55 AM 41.0 °F 35.8 °F 14.0 °F 33% 29.69 in 10.0 mi WNW 8.1 mph 16.1 mph N/A   Overcast
4:15 AM 41.0 °F 35.2 °F 15.8 °F 36% 29.70 in 10.0 mi WNW 9.2 mph - N/A   Overcast
4:35 AM 41.0 °F 35.8 °F 15.8 °F 36% 29.71 in 10.0 mi WNW 8.1 mph - N/A   Overcast
4:55 AM 41.0 °F 34.7 °F 15.8 °F 36% 29.71 in 10.0 mi WNW 10.4 mph - N/A   Overcast
5:15 AM 41.0 °F 35.2 °F 17.6 °F 39% 29.71 in 10.0 mi NW 9.2 mph - N/A   Overcast
5:35 AM 39.2 °F 32.0 °F 17.6 °F 42% 29.73 in 10.0 mi NW 11.5 mph - N/A   Overcast
5:55 AM 41.0 °F 34.7 °F 19.4 °F 42% 29.75 in 10.0 mi NW 10.4 mph - N/A   Overcast
6:15 AM 41.0 °F 32.5 °F 28.4 °F 61% 29.76 in 10.0 mi NNW 17.3 mph 25.3 mph N/A   Overcast
6:35 AM 39.2 °F 32.0 °F 32.0 °F 75% 29.77 in 10.0 mi NW 11.5 mph - N/A   Overcast
6:55 AM 39.2 °F 34.2 °F 32.0 °F 75% 29.78 in 10.0 mi WNW 6.9 mph - N/A   Mostly Cloudy
7:15 AM 39.2 °F 35.0 °F 32.0 °F 75% 29.79 in 10.0 mi NW 5.8 mph - N/A   Overcast
7:35 AM 37.4 °F 33.8 °F 33.8 °F 87% 29.80 in 10.0 mi NW 4.6 mph - N/A   Mostly Cloudy
7:55 AM 37.4 °F 33.8 °F 32.0 °F 81% 29.80 in 10.0 mi NW 4.6 mph - N/A   Overcast
8:15 AM 37.4 °F - 33.8 °F 87% 29.80 in 10.0 mi Calm Calm - N/A   Mostly Cloudy
8:35 AM 39.2 °F 35.0 °F 35.6 °F 87% 29.81 in 10.0 mi NW 5.8 mph - N/A   Scattered Clouds
8:55 AM 39.2 °F 30.8 °F 35.6 °F 87% 29.82 in 10.0 mi WNW 15.0 mph 21.9 mph N/A   Mostly Cloudy
9:15 AM 41.0 °F 32.5 °F 32.0 °F 70% 29.81 in 10.0 mi WNW 17.3 mph 26.5 mph N/A   Mostly Cloudy
9:35 AM 44.6 °F 37.4 °F 30.2 °F 57% 29.82 in 10.0 mi NW 16.1 mph 23.0 mph N/A   Overcast
9:55 AM 42.8 °F 34.5 °F 28.4 °F 57% 29.83 in 10.0 mi WNW 18.4 mph 24.2 mph N/A   Overcast
10:15 AM 44.6 °F 36.4 °F 28.4 °F 53% 29.84 in 10.0 mi WNW 20.7 mph 28.8 mph N/A   Overcast
10:35 AM 44.6 °F 36.6 °F 28.4 °F 53% 29.84 in 10.0 mi NW 19.6 mph 32.2 mph N/A   Overcast
10:55 AM 44.6 °F 37.2 °F 28.4 °F 53% 29.85 in 10.0 mi NW 17.3 mph 33.4 mph N/A   Overcast
11:15 AM 41.0 °F 31.6 °F 32.0 °F 70% 29.86 in 5.0 mi NW 20.7 mph 32.2 mph N/A Rain Light Rain
11:35 AM 41.0 °F 32.2 °F 33.8 °F 76% 29.86 in 10.0 mi NW 18.4 mph 25.3 mph 0.01 in   Scattered Clouds
11:55 AM 41.0 °F 31.6 °F 32.0 °F 70% 29.86 in 10.0 mi NW 20.7 mph 26.5 mph 0.01 in   Mostly Cloudy
12:35 PM 41.0 °F 31.4 °F 26.6 °F 57% 29.88 in 10.0 mi NNW 21.9 mph 27.6 mph N/A   Mostly Cloudy
12:55 PM 41.0 °F 32.5 °F 19.4 °F 42% 29.88 in 10.0 mi NW 17.3 mph 27.6 mph N/A   Partly Cloudy
1:15 PM 41.0 °F 30.5 °F 1.4 °F 19% 29.88 in 9.0 mi WNW 26.5 mph 36.8 mph N/A   Clear
1:35 PM 39.2 °F 28.3 °F -0.4 °F 19% 29.89 in 8.0 mi WNW 25.3 mph 35.7 mph N/A   Clear
1:55 PM 39.2 °F 28.5 °F -2.2 °F 17% 29.89 in 9.0 mi NW 24.2 mph 32.2 mph N/A   Clear
2:15 PM 39.2 °F 29.0 °F -0.4 °F 19% 29.90 in 10.0 mi NW 21.9 mph 29.9 mph N/A   Clear
2:35 PM 39.2 °F 29.0 °F -0.4 °F 19% 29.91 in 10.0 mi WNW 21.9 mph 29.9 mph N/A   Clear
2:55 PM 39.2 °F 28.5 °F -0.4 °F 19% 29.92 in 10.0 mi NW 24.2 mph 36.8 mph N/A   Clear
3:35 PM 37.4 °F 28.9 °F -5.8 °F 16% 29.94 in 10.0 mi NW 13.8 mph - N/A   Clear
3:55 PM 37.4 °F 26.4 °F -9.4 °F 13% 29.94 in 10.0 mi NNW 23.0 mph 32.2 mph N/A   Clear
4:15 PM 35.6 °F 25.5 °F -7.6 °F 16% 29.96 in 10.0 mi NW 17.3 mph - N/A   Clear
4:35 PM 35.6 °F 26.6 °F -5.8 °F 17% 29.95 in 10.0 mi NNW 13.8 mph 24.2 mph N/A   Clear
4:55 PM 35.6 °F 27.1 °F -4.0 °F 18% 29.96 in 10.0 mi North 12.7 mph - N/A   Clear
5:15 PM 32.0 °F 23.6 °F -2.2 °F 23% 29.97 in 10.0 mi NNW 10.4 mph - N/A   Clear
5:35 PM 32.0 °F 24.8 °F -2.2 °F 23% 29.97 in 10.0 mi NNW 8.1 mph - N/A   Clear
5:55 PM 32.0 °F 25.6 °F -2.2 °F 23% 29.98 in 10.0 mi NNW 6.9 mph - N/A   Clear
6:15 PM 30.2 °F 23.4 °F -0.4 °F 27% 29.99 in 10.0 mi NNW 6.9 mph - N/A   Clear
6:55 PM 28.4 °F - 5.0 °F 37% 29.98 in 10.0 mi Calm Calm - N/A   Clear
7:15 PM 28.4 °F 23.3 °F 1.4 °F 31% 29.99 in 10.0 mi NNW 4.6 mph - N/A   Clear
7:35 PM 26.6 °F - 1.4 °F 34% 29.99 in 10.0 mi Calm Calm - N/A   Clear
7:55 PM 24.8 °F - 3.2 °F 40% 29.99 in 10.0 mi Calm Calm - N/A   Clear
8:15 PM 26.6 °F - -0.4 °F 31% 29.97 in 10.0 mi Calm Calm - N/A   Clear
9:15 PM 23.0 °F - 10.4 °F 59% 29.95 in 10.0 mi Calm Calm - N/A   Clear
9:35 PM 24.8 °F - 6.8 °F 46% 29.94 in 10.0 mi Calm Calm - N/A   Clear
9:55 PM 24.8 °F - 14.0 °F 64% 29.95 in 10.0 mi Calm Calm - N/A   Partly Cloudy
10:15 PM 24.8 °F - 15.8 °F 69% 29.93 in 10.0 mi Calm Calm - N/A   Mostly Cloudy
10:35 PM 24.8 °F 20.5 °F 15.8 °F 69% 29.93 in 10.0 mi SE 3.5 mph - N/A   Overcast
10:55 PM 24.8 °F 20.5 °F 8.6 °F 50% 29.92 in 10.0 mi SE 3.5 mph - N/A   Scattered Clouds
11:15 PM 23.0 °F 18.4 °F 6.8 °F 50% 29.92 in 10.0 mi SE 3.5 mph - N/A   Clear
11:35 PM 24.8 °F 16.9 °F 6.8 °F 46% 29.89 in 10.0 mi SE 6.9 mph - N/A   Partly Cloudy
11:55 PM 24.8 °F 17.9 °F 3.2 °F 40% 29.89 in 10.0 mi SE 5.8 mph - N/A   Scattered Clouds